Time,TemperatureF,DewpointF,PressureIn,WindDirection,WindDirectionDegrees,WindSpeedMPH,WindSpeedGustMPH,Humidity,HourlyPrecipIn,Conditions,Clouds,dailyrainin,SoftwareType,DateUTC
2013-10-11 00:13:00,57.3,54.0,30.12,NE,42,2.0,-999.0,89,-99.99,,,0.00,weatherlink.com 1.10,2013-10-11 04:13:00,
2013-10-11 00:28:00,57.3,54.0,30.13,ENE,65,3.0,-999.0,89,-99.99,,,0.00,weatherlink.com 1.10,2013-10-11 04:28:00,
2013-10-11 00:43:00,57.2,54.0,30.13,NE,53,0.0,-999.0,89,-99.99,,,0.00,weatherlink.com 1.10,2013-10-11 04:43:00,
2013-10-11 00:58:00,57.1,54.0,30.12,NE,43,0.0,-999.0,89,-99.99,,,0.00,weatherlink.com 1.10,2013-10-11 04:58:00,
2013-10-11 01:13:00,57.1,54.0,30.12,NE,56,0.0,-999.0,89,-99.99,,,0.00,weatherlink.com 1.10,2013-10-11 05:13:00,
2013-10-11 01:28:00,56.9,54.0,30.11,NNE,19,4.0,-999.0,89,-99.99,,,0.00,weatherlink.com 1.10,2013-10-11 05:28:00,
2013-10-11 01:43:00,56.7,54.0,30.11,NE,55,0.0,-999.0,89,-99.99,,,0.00,weatherlink.com 1.10,2013-10-11 05:43:00,
2013-10-11 01:59:00,56.6,54.0,30.11,NE,43,0.0,-999.0,89,-99.99,,,0.00,weatherlink.com 1.10,2013-10-11 05:59:00,
2013-10-11 02:14:00,56.5,54.0,30.11,NE,51,0.0,-999.0,90,-99.99,,,0.00,weatherlink.com 1.10,2013-10-11 06:14:00,
2013-10-11 02:29:00,56.4,54.0,30.11,NE,46,0.0,-999.0,90,-99.99,,,0.00,weatherlink.com 1.10,2013-10-11 06:29:00,
2013-10-11 02:44:00,56.2,53.0,30.10,NE,51,3.0,-999.0,90,-99.99,,,0.00,weatherlink.com 1.10,2013-10-11 06:44:00,
2013-10-11 02:59:00,56.2,53.0,30.10,NNE,33,5.0,-999.0,90,-99.99,,,0.00,weatherlink.com 1.10,2013-10-11 06:59:00,
2013-10-11 03:14:00,56.2,53.0,30.09,NNE,33,0.0,-999.0,90,-99.99,,,0.00,weatherlink.com 1.10,2013-10-11 07:14:00,
2013-10-11 03:29:00,56.2,53.0,30.09,East,83,0.0,-999.0,90,-99.99,,,0.00,weatherlink.com 1.10,2013-10-11 07:29:00,
2013-10-11 03:44:00,56.2,53.0,30.08,NE,40,3.0,-999.0,90,-99.99,,,0.00,weatherlink.com 1.10,2013-10-11 07:44:00,
2013-10-11 03:59:00,56.0,53.0,30.08,ESE,103,0.0,-999.0,90,-99.99,,,0.00,weatherlink.com 1.10,2013-10-11 07:59:00,
2013-10-11 04:14:00,55.8,53.0,30.08,NE,45,4.0,-999.0,90,-99.99,,,0.00,weatherlink.com 1.10,2013-10-11 08:14:00,
2013-10-11 04:29:00,55.7,53.0,30.08,NE,39,0.0,-999.0,90,-99.99,,,0.00,weatherlink.com 1.10,2013-10-11 08:29:00,
2013-10-11 04:44:00,55.7,53.0,30.08,ENE,58,6.0,-999.0,90,-99.99,,,0.00,weatherlink.com 1.10,2013-10-11 08:44:00,
2013-10-11 04:59:00,55.7,53.0,30.08,ENE,57,3.0,-999.0,90,-99.99,,,0.00,weatherlink.com 1.10,2013-10-11 08:59:00,
2013-10-11 05:14:00,55.9,53.0,30.09,NE,44,0.0,-999.0,91,-99.99,,,0.00,weatherlink.com 1.10,2013-10-11 09:14:00,
2013-10-11 05:29:00,55.9,53.0,30.09,NE,56,0.0,-999.0,90,-99.99,,,0.00,weatherlink.com 1.10,2013-10-11 09:29:00,
2013-10-11 05:44:00,55.9,53.0,30.09,East,83,0.0,-999.0,91,-99.99,,,0.00,weatherlink.com 1.10,2013-10-11 09:44:00,
2013-10-11 05:59:00,56.0,54.0,30.09,NE,41,6.0,-999.0,91,-99.99,,,0.00,weatherlink.com 1.10,2013-10-11 09:59:00,
2013-10-11 06:14:00,56.1,54.0,30.09,NE,46,0.0,-999.0,91,-99.99,,,0.00,weatherlink.com 1.10,2013-10-11 10:14:00,
2013-10-11 06:29:00,56.1,54.0,30.09,NE,51,2.0,-999.0,91,-99.99,,,0.00,weatherlink.com 1.10,2013-10-11 10:29:00,
2013-10-11 06:44:00,56.0,53.0,30.09,NE,55,1.0,-999.0,90,-99.99,,,0.00,weatherlink.com 1.10,2013-10-11 10:44:00,
2013-10-11 06:59:00,56.1,54.0,30.09,ENE,71,3.0,-999.0,91,-99.99,,,0.00,weatherlink.com 1.10,2013-10-11 10:59:00,
2013-10-11 07:14:00,56.1,53.0,30.09,ENE,64,0.0,-999.0,90,-99.99,,,0.00,weatherlink.com 1.10,2013-10-11 11:14:00,
2013-10-11 07:29:00,56.1,53.0,30.09,NNE,29,0.0,-999.0,90,-99.99,,,0.00,weatherlink.com 1.10,2013-10-11 11:29:00,
2013-10-11 07:44:00,56.3,54.0,30.09,NE,39,0.0,-999.0,90,-99.99,,,0.00,weatherlink.com 1.10,2013-10-11 11:44:00,
2013-10-11 07:59:00,56.4,54.0,30.09,ENE,57,0.0,-999.0,90,-99.99,,,0.00,weatherlink.com 1.10,2013-10-11 11:59:00,
2013-10-11 08:14:00,56.4,54.0,30.09,ENE,70,0.0,-999.0,90,-99.99,,,0.00,weatherlink.com 1.10,2013-10-11 12:14:00,
2013-10-11 08:29:00,56.6,54.0,30.09,NE,46,0.0,-999.0,90,-99.99,,,0.00,weatherlink.com 1.10,2013-10-11 12:29:00,
2013-10-11 08:44:00,56.9,54.0,30.10,NE,51,5.0,-999.0,90,-99.99,,,0.00,weatherlink.com 1.10,2013-10-11 12:44:00,
2013-10-11 08:59:00,57.2,54.0,30.10,NNE,28,4.0,-999.0,89,-99.99,,,0.00,weatherlink.com 1.10,2013-10-11 12:59:00,
2013-10-11 09:14:00,57.6,54.0,30.10,NE,36,0.0,-999.0,89,-99.99,,,0.00,weatherlink.com 1.10,2013-10-11 13:14:00,
2013-10-11 09:29:00,58.4,55.0,30.11,NNE,26,3.0,-999.0,88,-99.99,,,0.00,weatherlink.com 1.10,2013-10-11 13:29:00,
2013-10-11 09:44:00,59.4,56.0,30.10,ENE,65,3.0,-999.0,87,-99.99,,,0.00,weatherlink.com 1.10,2013-10-11 13:44:00,
2013-10-11 09:59:00,60.4,56.0,30.10,East,83,6.0,-999.0,85,-99.99,,,0.00,weatherlink.com 1.10,2013-10-11 13:59:00,
2013-10-11 10:14:00,61.5,56.0,30.10,NE,47,5.0,-999.0,83,-99.99,,,0.00,weatherlink.com 1.10,2013-10-11 14:14:00,
2013-10-11 10:29:00,62.5,57.0,30.10,NNE,32,3.0,-999.0,81,-99.99,,,0.00,weatherlink.com 1.10,2013-10-11 14:29:00,
2013-10-11 10:45:00,63.6,57.0,30.10,ENE,68,2.0,-999.0,79,-99.99,,,0.00,weatherlink.com 1.10,2013-10-11 14:45:00,
2013-10-11 10:59:00,64.2,57.0,30.10,ENE,66,9.0,-999.0,77,-99.99,,,0.00,weatherlink.com 1.10,2013-10-11 14:59:00,
2013-10-11 11:14:00,64.0,56.0,30.11,NE,54,4.0,-999.0,76,-99.99,,,0.00,weatherlink.com 1.10,2013-10-11 15:14:00,
2013-10-11 11:29:00,64.2,57.0,30.10,ENE,68,0.0,-999.0,77,-99.99,,,0.00,weatherlink.com 1.10,2013-10-11 15:29:00,
2013-10-11 11:44:00,64.6,57.0,30.10,ENE,77,6.0,-999.0,76,-99.99,,,0.00,weatherlink.com 1.10,2013-10-11 15:44:00,
2013-10-11 12:00:00,65.1,57.0,30.10,NE,52,2.0,-999.0,75,-99.99,,,0.00,weatherlink.com 1.10,2013-10-11 16:00:00,
2013-10-11 12:15:00,65.7,57.0,30.10,NE,55,5.0,-999.0,74,-99.99,,,0.00,weatherlink.com 1.10,2013-10-11 16:15:00,
2013-10-11 12:30:00,66.1,57.0,30.10,ENE,76,10.0,-999.0,73,-99.99,,,0.00,weatherlink.com 1.10,2013-10-11 16:30:00,
2013-10-11 12:45:00,66.4,58.0,30.10,NE,53,4.0,-999.0,73,-99.99,,,0.00,weatherlink.com 1.10,2013-10-11 16:45:00,
2013-10-11 13:00:00,66.2,57.0,30.09,NNE,33,3.0,-999.0,72,-99.99,,,0.00,weatherlink.com 1.10,2013-10-11 17:00:00,
2013-10-11 13:15:00,66.2,57.0,30.09,ENE,63,4.0,-999.0,72,-99.99,,,0.00,weatherlink.com 1.10,2013-10-11 17:15:00,
2013-10-11 13:30:00,66.4,57.0,30.08,East,83,6.0,-999.0,72,-99.99,,,0.00,weatherlink.com 1.10,2013-10-11 17:30:00,
2013-10-11 13:45:00,66.7,57.0,30.08,ENE,61,3.0,-999.0,71,-99.99,,,0.00,weatherlink.com 1.10,2013-10-11 17:45:00,
2013-10-11 14:00:00,66.6,57.0,30.07,NE,39,1.0,-999.0,71,-99.99,,,0.00,weatherlink.com 1.10,2013-10-11 18:00:00,
2013-10-11 14:15:00,66.6,57.0,30.07,ENE,70,4.0,-999.0,71,-99.99,,,0.00,weatherlink.com 1.10,2013-10-11 18:15:00,
2013-10-11 14:30:00,66.2,56.0,30.07,ENE,74,4.0,-999.0,70,-99.99,,,0.00,weatherlink.com 1.10,2013-10-11 18:30:00,
2013-10-11 14:45:00,66.2,57.0,30.08,ENE,64,5.0,-999.0,71,-99.99,,,0.00,weatherlink.com 1.10,2013-10-11 18:45:00,
2013-10-11 15:00:00,66.0,56.0,30.07,North,10,4.0,-999.0,70,-99.99,,,0.00,weatherlink.com 1.10,2013-10-11 19:00:00,
2013-10-11 15:15:00,65.9,55.0,30.07,East,82,7.0,-999.0,69,-99.99,,,0.00,weatherlink.com 1.10,2013-10-11 19:15:00,
2013-10-11 15:30:00,65.4,55.0,30.08,NE,52,4.0,-999.0,70,-99.99,,,0.00,weatherlink.com 1.10,2013-10-11 19:30:00,
2013-10-11 15:45:00,65.4,56.0,30.07,ENE,58,2.0,-999.0,71,-99.99,,,0.00,weatherlink.com 1.10,2013-10-11 19:45:00,
2013-10-11 16:00:00,65.6,56.0,30.07,East,83,6.0,-999.0,70,-99.99,,,0.00,weatherlink.com 1.10,2013-10-11 20:00:00,
2013-10-11 16:15:00,65.4,55.0,30.07,NNE,30,6.0,-999.0,70,-99.99,,,0.00,weatherlink.com 1.10,2013-10-11 20:15:00,
2013-10-11 16:30:00,65.1,55.0,30.07,NE,53,2.0,-999.0,71,-99.99,,,0.00,weatherlink.com 1.10,2013-10-11 20:30:00,
2013-10-11 16:45:00,64.9,55.0,30.07,ENE,63,0.0,-999.0,71,-99.99,,,0.00,weatherlink.com 1.10,2013-10-11 20:45:00,
2013-10-11 17:00:00,64.5,55.0,30.07,NNE,24,0.0,-999.0,71,-99.99,,,0.00,weatherlink.com 1.10,2013-10-11 21:00:00,
2013-10-11 17:15:00,63.9,55.0,30.07,ENE,67,4.0,-999.0,72,-99.99,,,0.00,weatherlink.com 1.10,2013-10-11 21:15:00,
2013-10-11 17:30:00,63.1,54.0,30.07,ENE,71,0.0,-999.0,72,-99.99,,,0.00,weatherlink.com 1.10,2013-10-11 21:30:00,
2013-10-11 17:45:00,62.2,53.0,30.08,NE,51,0.0,-999.0,72,-99.99,,,0.00,weatherlink.com 1.10,2013-10-11 21:45:00,
2013-10-11 18:00:00,61.5,53.0,30.08,ENE,76,4.0,-999.0,73,-99.99,,,0.00,weatherlink.com 1.10,2013-10-11 22:00:00,
2013-10-11 18:15:00,60.6,52.0,30.09,ENE,59,0.0,-999.0,73,-99.99,,,0.00,weatherlink.com 1.10,2013-10-11 22:15:00,
2013-10-11 18:30:00,59.6,51.0,30.09,ENE,61,2.0,-999.0,73,-99.99,,,0.00,weatherlink.com 1.10,2013-10-11 22:30:00,
2013-10-11 18:45:00,58.7,50.0,30.10,NE,48,0.0,-999.0,74,-99.99,,,0.00,weatherlink.com 1.10,2013-10-11 22:45:00,
2013-10-11 19:00:00,58.0,50.0,30.10,East,81,0.0,-999.0,75,-99.99,,,0.00,weatherlink.com 1.10,2013-10-11 23:00:00,
2013-10-11 19:15:00,57.3,49.0,30.10,ENE,60,0.0,-999.0,75,-99.99,,,0.00,weatherlink.com 1.10,2013-10-11 23:15:00,
2013-10-11 19:30:00,56.6,49.0,30.10,ENE,74,0.0,-999.0,75,-99.99,,,0.00,weatherlink.com 1.10,2013-10-11 23:30:00,
2013-10-11 19:45:00,56.0,48.0,30.11,ENE,73,0.0,-999.0,74,-99.99,,,0.00,weatherlink.com 1.10,2013-10-11 23:45:00,
2013-10-11 20:00:00,55.6,48.0,30.11,ENE,68,1.0,-999.0,75,-99.99,,,0.00,weatherlink.com 1.10,2013-10-12 00:00:00,
2013-10-11 20:15:00,55.2,48.0,30.11,ENE,68,0.0,-999.0,76,-99.99,,,0.00,weatherlink.com 1.10,2013-10-12 00:15:00,
2013-10-11 20:30:00,54.9,48.0,30.11,ENE,68,0.0,-999.0,77,-99.99,,,0.00,weatherlink.com 1.10,2013-10-12 00:30:00,
2013-10-11 20:45:00,54.4,48.0,30.11,ENE,68,0.0,-999.0,78,-99.99,,,0.00,weatherlink.com 1.10,2013-10-12 00:45:00,
2013-10-11 21:00:00,53.8,47.0,30.11,ENE,69,0.0,-999.0,79,-99.99,,,0.00,weatherlink.com 1.10,2013-10-12 01:00:00,
2013-10-11 21:15:00,53.3,47.0,30.11,ENE,69,0.0,-999.0,80,-99.99,,,0.00,weatherlink.com 1.10,2013-10-12 01:15:00,
2013-10-11 21:30:00,53.0,48.0,30.11,ENE,69,0.0,-999.0,82,-99.99,,,0.00,weatherlink.com 1.10,2013-10-12 01:30:00,
2013-10-11 21:45:00,52.6,48.0,30.11,ENE,69,0.0,-999.0,83,-99.99,,,0.00,weatherlink.com 1.10,2013-10-12 01:45:00,
2013-10-11 22:00:00,52.3,48.0,30.11,ENE,69,0.0,-999.0,84,-99.99,,,0.00,weatherlink.com 1.10,2013-10-12 02:00:00,
2013-10-11 22:15:00,52.0,47.0,30.11,ENE,66,3.0,-999.0,84,-99.99,,,0.00,weatherlink.com 1.10,2013-10-12 02:15:00,
2013-10-11 22:30:00,51.7,47.0,30.11,NE,38,2.0,-999.0,85,-99.99,,,0.00,weatherlink.com 1.10,2013-10-12 02:30:00,
2013-10-11 22:45:00,51.5,47.0,30.12,NE,38,0.0,-999.0,85,-99.99,,,0.00,weatherlink.com 1.10,2013-10-12 02:45:00,
2013-10-11 23:00:00,51.3,47.0,30.12,NE,38,0.0,-999.0,86,-99.99,,,0.00,weatherlink.com 1.10,2013-10-12 03:00:00,
2013-10-11 23:15:00,51.1,47.0,30.11,NE,38,0.0,-999.0,86,-99.99,,,0.00,weatherlink.com 1.10,2013-10-12 03:15:00,
2013-10-11 23:30:00,51.0,47.0,30.11,NE,38,0.0,-999.0,86,-99.99,,,0.00,weatherlink.com 1.10,2013-10-12 03:30:00,
2013-10-11 23:45:00,50.8,47.0,30.11,NE,38,0.0,-999.0,87,-99.99,,,0.00,weatherlink.com 1.10,2013-10-12 03:45:00,